Probability
0 0 0 0 0 0 0 0 0 0 0 0 0 0 0 0 0 0 0 0 0 0 0 0 0 0 0 0 0 0 0 0 0 0 0 0 0 0
0 0 0 0 0 0 0 0 0 0 0 0 0 0 0 0 0 0 0 0 0 0 0 0 0 0 0 0 0 0 0 0 0 0 0 0 0 0
0 0 0 0 0 0 0 0 0 0 0 0 0 0 0 0 0 0 0 0 0 0 0 0 0 0 0 0 0 0 0 0 0 0 0 0 0 0
0 0 0 0 0 0 0 0 0 0 0 0 0 0 0 0 0 0 0 0 0 0 0 0 0 0 0 0 0 0 0 0 0 0 0 0 0 0
0 0 0 0 0 0 0 0 0 0 0 0 0 0 0 0 0 0 0 0 0 0 0 0 0 0 0 0 0 0 0 0 0 0 0 0 0 0
0 0 0 0 0 0 0 0 0 0 0 0 0 0 0 0 0 0 0 0 0 0 0 0 0 0 0 0 0 0 0 0 0 0 0 0 0 0
0 0 0 0 0 0 0 0 0 0 0 0 0 0 0 0 0 0 0 0 0 0 0 0 0 0 0 0 0 0 0 0 0 0 0 0 0 0
0 0 0 0 0 0 0 0 0 0 0 0 0 0 0 0 0 0 0 0 0 0 0 0 0 0 0 0 0 0 0 0 0 0 0 0 0 0
0 0 0 0 0 0 0 0 0 0 0 0 0 0 0 0 0 0 0 0 0 0 0 0 0 0 0 0 0 0 0 0 0 0 0 0 0 0
0 0 0 0 0 0 0 0 0 0 0 0 0 0 0 0 0 0 0 0 0 0 0 0 0 0 0 0 0 0 0 0 0 0 0 0 0 0
0 0 0 0 0 0 0 0 0 0 0 0 0 0 0 0 0 0 0 0 0 0 0 0 0 0 0 0 0 0 0 0 0 0 0 0 0 0
0 0 0 0 0 0 0 0 0 0 0 0 0 0 0 0 0 0 0 0 0 0 0 0 0 0 0 0 0 0 0 0 0 0 0 0 0 0
0 0 0 0 0 0 0 0 0 0 0 0 0 0 0 0 0 0 0 0 0 0 0 0 0 0 0 0 0 0 0 0 0 0 0 0 0 0
0 0 0 0 0 0 0 0 0 0 0 0 0 0 0 0 0 0 0 0 0 0 0 0 0 0 0 0 0 0 0 0 0 0 0 0 0 0
0 0 0 0 0 0 0 0 0 0 0 0 0 0 0 0 0 0 0 0 0 0 0 0 0 0 0 0 0 0 0 0 0 0 0 0 0 0
0 0 0 0 0 0 0 0 0 0 0 0 0 0 0 0 0 0 0 0 0 0 0 0 0 0 0 0 0 0 0 0 0 0 0 0 0 0
0 0 0 0 0 0 0 0 0 0 0 0 0 0 0 0 0 0 0 0 0 0 0 0 0 0 0 0 0 0 0 0 0 0 0 0 0 0
0 0 0 0 0 0 0 0 0 0 0 0 0 0 0 0 0 0 0 0 0 0 0 0 0 0 0 0 0 0 0 0 0 0 0 0 0 0
0 0 0 0 0 0 0 0 0 0 0 0 0 0 0 0 0 0 0 0 0 0 0 0 0 0 0 0 0 0 0 0 0 0 0 0 0 0
0 0 0 0 0 0 0 0 0 0 0 0 0 0 0 0 0 0 0 0 0 0 0 0 0 0 0 0 0 0 0 0 0 0 0 0 0 0
0 0 0 0 0 0 0 0 0 0 0 0 0 0 0 0 0 0 0 0 0 0 0 0 0 0 0 0 0 0 0 0 0 0 0 0 0 0
0 0 0 0 0 0 0 0 0 0 0 0 0 0 0 0 0 0 0 0 0 0 0 0 0 0 0 0 0 0 0 0 0 0 0 0 0 0
0 0 0 0 0 0 0 0 0 0 0 0 0 0 0 0 0 0 0 0 0 0 0 0 0 0 0 0 0 0 0 0 0 0 0 0 0 0
Wind_Speed
1 1 1 2 1 1 1 2 2 2 2 3 2 1 1 1 2 1 2 4 4 4 4 4 4 4 5 5 5 4 4 4 4 5 6 7 7 7
1 1 1 1 1 1 1 1 2 2 2 2 2 2 2 2 3 2 2 5 5 5 5 5 5 5 5 5 5 4 4 4 4 5 5 5 6 7
2 1 2 2 1 1 1 1 1 2 3 3 1 1 2 2 2 2 2 2 2 5 5 5 4 4 5 5 4 4 4 4 4 4 4 4 5 6
2 2 2 2 2 1 1 1 1 2 2 3 2 1 2 3 2 2 2 2 2 4 5 5 5 5 5 5 5 4 4 4 4 4 4 4 4 5
2 2 2 2 2 2 2 2 2 2 2 2 2 2 2 2 2 2 2 1 2 2 4 5 6 6 6 6 6 5 5 5 5 5 5 5 4 4
2 2 2 2 2 3 2 2 2 2 1 1 2 2 2 2 1 2 2 1 2 1 2 2 4 5 6 7 7 6 6 6 6 6 5 5 5 5
3 2 2 3 3 3 2 2 2 2 2 2 2 2 2 1 2 2 2 2 2 1 1 1 1 2 3 5 7 8 8 7 7 7 7 6 6 6
3 3 3 3 4 5 5 4 3 3 3 2 2 3 3 3 2 2 1 1 2 1 1 2 2 2 3 3 6 8 9 8 8 8 8 7 7 7
2 3 3 3 4 3 4 5 4 4 6 4 4 5 4 3 3 2 2 3 3 2 2 2 2 3 3 4 8 9 10 10 9 9 9 8 8 8
2 2 2 4 4 3 2 3 3 4 4 4 4 5 4 3 3 3 3 2 2 2 2 2 2 2 3 3 7 9 10 11 10 10 10 9 9 8
3 3 2 2 5 3 1 2 4 5 5 4 5 6 6 6 4 2 1 1 2 2 2 2 2 1 2 3 5 9 10 10 11 10 10 10 10 8
3 3 4 4 5 4 2 2 4 5 5 5 4 4 4 5 6 5 4 3 2 2 2 2 2 1 1 2 2 3 5 8 10 10 11 11 10 5
2 3 4 6 6 5 4 3 6 6 5 4 4 4 3 3 4 5 5 5 4 4 3 3 2 2 2 2 2 2 3 3 4 5 9 11 12 9
3 3 4 7 8 8 5 6 8 6 3 3 3 3 3 3 3 4 6 6 5 5 4 4 3 3 2 2 2 2 2 3 4 4 4 7 9 12
4 7 8 9 9 7 8 9 6 3 2 3 3 4 3 3 3 2 3 3 4 5 5 5 4 3 3 3 3 2 2 3 4 5 4 5 5 5
3 6 8 8 6 6 7 5 3 3 3 4 4 4 3 3 2 2 2 2 2 3 4 6 6 6 4 4 4 4 3 3 3 5 4 4 5 6
3 3 3 3 4 4 4 4 3 3 3 3 3 3 3 3 3 2 2 2 2 3 3 3 4 5 6 5 4 5 4 4 4 4 4 4 5 6
2 3 4 4 4 5 5 5 4 4 4 3 3 4 4 3 3 2 2 3 3 4 4 3 2 1 1 4 8 6 5 5 4 4 4 4 5 6
2 4 5 5 5 5 5 5 5 5 3 3 4 4 4 3 3 3 3 3 4 4 4 3 3 3 3 4 5 8 6 4 3 3 4 5 6 6
3 5 5 5 5 5 5 5 5 5 3 3 4 4 4 4 4 4 4 4 4 4 4 3 4 5 6 5 4 4 8 7 4 5 4 4 4 5
4 5 5 5 5 5 5 5 4 4 4 3 4 4 4 3 4 4 4 6 5 4 5 5 6 7 3 1 2 4 5 9 9 6 4 3 3 3
5 5 5 5 5 5 5 4 4 4 4 4 4 4 4 3 4 5 5 4 4 5 5 5 3 2 3 4 5 6 5 5 6 10 10 9 5 5
6 5 5 5 5 4 3 3 4 3 3 3 3 4 3 3 3 4 5 5 4 4 4 4 3 2 3 4 5 5 6 5 3 3 4 9 13 13
Wind_Direction
290 286 276 276 271 250 210 191 193 264 281 278 285 290 277 272 245 234 241 230 223 221 220 213 209 210 212 219 212 211 211 214 214 215 212 211 208 206
327 336 304 288 303 294 247 221 197 206 249 264 259 278 285 280 257 247 244 239 229 219 213 210 206 207 207 206 201 200 200 205 207 206 203 200 201 202
328 334 308 297 308 303 288 256 232 202 236 270 271 285 277 273 282 275 257 249 234 222 218 211 203 204 206 201 199 203 202 204 204 198 191 186 187 193
307 318 311 323 316 299 290 272 255 227 213 251 272 274 260 259 260 264 264 253 237 230 222 215 206 206 208 201 195 197 199 199 197 191 191 190 187 191
269 279 292 314 316 303 290 279 268 259 217 219 253 265 265 266 275 276 271 284 256 234 222 221 216 211 209 203 200 198 198 198 197 196 198 198 196 197
285 280 278 268 272 283 289 280 275 267 246 235 251 265 264 265 235 258 284 284 275 259 233 215 216 218 214 209 207 204 202 200 201 202 201 199 197 196
314 303 280 282 283 280 275 265 264 251 243 243 257 269 268 261 242 237 252 275 279 246 237 234 217 223 223 216 214 211 205 201 202 203 203 200 201 201
305 308 301 306 304 302 293 275 248 233 235 235 246 245 253 244 232 222 221 234 274 255 193 250 204 225 230 221 219 212 207 204 205 205 204 202 200 198
293 298 305 313 312 304 305 308 301 269 240 224 232 237 238 231 215 223 221 217 232 232 182 246 225 230 232 227 216 213 212 210 209 208 207 205 203 202
295 284 281 297 307 299 305 320 313 302 278 240 231 238 237 229 215 221 217 229 265 253 187 225 228 227 236 230 223 215 214 213 213 212 210 209 207 207
321 319 294 287 308 311 308 309 315 311 305 279 248 243 242 241 218 196 197 191 254 256 202 196 233 233 243 239 229 218 216 214 214 215 214 212 209 207
318 321 314 298 302 308 289 285 299 300 310 315 302 281 260 250 230 208 201 200 211 246 217 182 209 184 267 260 228 211 214 219 216 217 216 214 208 200
294 299 302 307 304 301 288 265 267 279 295 296 294 292 283 260 238 217 207 200 200 227 214 174 194 191 204 263 263 215 200 205 205 218 220 218 212 200
270 277 282 296 300 298 289 273 276 280 281 289 289 286 278 268 252 232 218 215 215 221 212 180 192 194 187 228 259 245 215 206 200 213 214 216 219 216
260 274 285 291 297 294 285 285 282 261 257 268 273 271 262 259 259 255 238 220 227 235 224 205 201 203 197 214 232 224 231 230 206 208 209 208 209 200
282 287 292 292 289 281 288 294 274 244 232 245 257 265 274 276 264 242 233 219 240 265 241 217 208 200 215 227 226 235 219 221 215 207 208 217 215 208
299 306 311 313 312 306 302 293 283 271 252 246 247 258 267 271 268 242 218 207 215 243 261 247 218 211 215 208 228 239 233 228 222 206 197 223 232 220
271 279 285 283 282 283 288 293 287 271 259 251 250 247 248 253 263 259 227 217 232 244 249 248 221 226 263 249 219 230 235 234 227 203 194 211 244 235
249 269 274 274 274 274 271 269 271 269 256 247 248 250 248 247 244 249 245 239 241 245 248 234 207 196 219 255 259 213 212 231 220 216 213 210 229 239
242 260 269 271 269 270 270 269 271 275 264 249 246 248 244 240 241 242 239 239 243 246 254 243 221 212 213 224 241 246 213 212 212 223 232 229 241 257
264 263 265 268 268 267 267 267 266 269 269 264 257 255 249 238 244 246 242 244 241 239 245 251 247 234 217 181 242 260 246 219 209 207 205 211 234 245
269 271 273 273 272 269 266 266 273 278 283 275 267 261 253 239 245 248 245 240 238 237 240 247 252 212 184 210 238 251 259 261 238 228 221 206 197 210
265 267 270 275 272 266 262 265 273 278 279 281 280 272 263 256 252 250 247 244 242 245 247 247 245 226 222 225 238 247 251 256 256 253 256 244 234 240